| time (UTC) | temp C | wind direction | speed KPH | gust KPH | rain 1hr cm | rain 24hr cm | rain mn cm | humidity % | barometer mb |
| 20260508014003 | 9 | 104 | 4.8 | 4.8 | 0.00 | 0.00 | 0.00 | 40 | 1015.3 |
| 20260508013004 | 10 | 91 | 3.2 | 8.0 | 0.00 | 0.00 | 0.00 | 38 | 1015.7 |
| 20260508012004 | 10 | 28 | 4.8 | 11.3 | 0.00 | 0.00 | 0.00 | 38 | 1015.4 |
| 20260508011003 | 10 | 11 | 6.4 | 16.1 | 0.00 | 0.00 | 0.00 | 37 | 1015.2 |
| 20260508010003 | 10 | 18 | 8.0 | 16.1 | 0.00 | 0.00 | 0.00 | 37 | 1015.3 |
| 20260508005003 | 10 | 18 | 8.0 | 14.5 | 0.00 | 0.00 | 0.00 | 38 | 1015.0 |
| 20260508004003 | 11 | 355 | 6.4 | 12.9 | 0.00 | 0.00 | 0.00 | 37 | 1014.9 |
| 20260508002004 | 11 | 339 | 3.2 | 12.9 | 0.00 | 0.00 | 0.00 | 38 | 1014.7 |
| 20260508001003 | 11 | 326 | 3.2 | 16.1 | 0.00 | 0.00 | 0.00 | 38 | 1014.7 |
| 20260507235004 | 11 | 5 | 6.4 | 14.5 | 0.00 | 0.00 | 0.00 | 38 | 1014.6 |
| 20260507234003 | 11 | 0 | 8.0 | 12.9 | 0.00 | 0.00 | 0.00 | 38 | 1014.9 |
| 20260507233003 | 11 | 326 | 3.2 | 14.5 | 0.00 | 0.00 | 0.00 | 39 | 1014.5 |
| 20260507232003 | 11 | 293 | 4.8 | 14.5 | 0.00 | 0.00 | 0.00 | 39 | 1014.7 |
| 20260507231003 | 11 | 307 | 6.4 | 16.1 | 0.00 | 0.00 | 0.00 | 38 | 1014.7 |
| 20260507230004 | 11 | 330 | 8.0 | 12.9 | 0.00 | 0.00 | 0.00 | 38 | 1015.0 |
| 20260507225003 | 11 | 321 | 8.0 | 20.9 | 0.00 | 0.00 | 0.00 | 38 | 1014.7 |
| 20260507224004 | 11 | 295 | 8.0 | 20.9 | 0.00 | 0.00 | 0.00 | 38 | 1015.0 |
| 20260507223003 | 11 | 225 | 3.2 | 22.5 | 0.00 | 0.00 | 0.00 | 38 | 1015.2 |
| 20260507222004 | 11 | 287 | 11.3 | 20.9 | 0.00 | 0.00 | 0.00 | 39 | 1015.2 |
| 20260507221003 | 11 | 294 | 9.7 | 19.3 | 0.00 | 0.00 | 0.00 | 38 | 1015.2 |
| 20260507220003 | 11 | 325 | 11.3 | 20.9 | 0.00 | 0.00 | 0.00 | 38 | 1015.1 |
| 20260507215004 | 11 | 300 | 8.0 | 16.1 | 0.00 | 0.00 | 0.00 | 38 | 1015.4 |
| 20260507214004 | 11 | 334 | 8.0 | 16.1 | 0.00 | 0.00 | 0.00 | 39 | 1015.4 |
| 20260507213004 | 10 | 306 | 8.0 | 32.2 | 0.00 | 0.00 | 0.00 | 39 | 1015.4 |
| 20260507210003 | 11 | 265 | 8.0 | 25.7 | 0.00 | 0.00 | 0.00 | 39 | 1015.2 |
| 20260507205003 | 11 | 291 | 11.3 | 22.5 | 0.00 | 0.00 | 0.00 | 39 | 1015.3 |
| 20260507204004 | 10 | 303 | 16.1 | 29.0 | 0.00 | 0.00 | 0.00 | 40 | 1015.7 |
| 20260507203004 | 10 | 307 | 16.1 | 33.8 | 0.00 | 0.00 | 0.00 | 39 | 1015.7 |
| 20260507202004 | 11 | 243 | 4.8 | 20.9 | 0.00 | 0.00 | 0.00 | 39 | 1015.6 |
| 20260507201004 | 10 | 288 | 9.7 | 19.3 | 0.00 | 0.00 | 0.00 | 42 | 1015.9 |
| 20260507200004 | 10 | 328 | 14.5 | 24.1 | 0.00 | 0.00 | 0.00 | 40 | 1015.8 |
| 20260507194003 | 11 | 295 | 11.3 | 27.4 | 0.00 | 0.00 | 0.00 | 38 | 1015.9 |
| 20260507193004 | 10 | 252 | 9.7 | 25.7 | 0.00 | 0.00 | 0.00 | 41 | 1016.3 |
| 20260507192003 | 11 | 233 | 12.9 | 22.5 | 0.00 | 0.00 | 0.00 | 40 | 1016.2 |
| 20260507191004 | 11 | 293 | 11.3 | 27.4 | 0.00 | 0.00 | 0.00 | 42 | 1016.2 |
| 20260507190004 | 10 | 288 | 12.9 | 25.7 | 0.00 | 0.00 | 0.00 | 43 | 1016.3 |
| 20260507185004 | 10 | 187 | 9.7 | 29.0 | 0.00 | 0.00 | 0.00 | 45 | 1016.2 |
| 20260507184004 | 10 | 285 | 6.4 | 22.5 | 0.00 | 0.00 | 0.00 | 44 | 1016.4 |
| 20260507183004 | 10 | 229 | 9.7 | 25.7 | 0.00 | 0.00 | 0.00 | 44 | 1016.6 |
| 20260507181004 | 11 | 262 | 11.3 | 22.5 | 0.00 | 0.00 | 0.00 | 43 | 1016.7 |
| 20260507180004 | 10 | 210 | 9.7 | 22.5 | 0.00 | 0.00 | 0.00 | 45 | 1016.9 |
| 20260507175004 | 10 | 279 | 9.7 | 22.5 | 0.00 | 0.00 | 0.00 | 44 | 1017.2 |
| 20260507172004 | 10 | 201 | 4.8 | 19.3 | 0.00 | 0.00 | 0.00 | 43 | 1017.3 |
| 20260507171003 | 10 | 236 | 8.0 | 16.1 | 0.00 | 0.00 | 0.00 | 42 | 1017.4 |
| 20260507170004 | 10 | 264 | 8.0 | 22.5 | 0.00 | 0.00 | 0.00 | 42 | 1017.5 |
| 20260507165003 | 9 | 305 | 8.0 | 20.9 | 0.00 | 0.00 | 0.00 | 43 | 1017.8 |
| 20260507164004 | 9 | 219 | 9.7 | 20.9 | 0.00 | 0.00 | 0.00 | 42 | 1018.0 |
| 20260507163004 | 8 | 268 | 8.0 | 19.3 | 0.00 | 0.00 | 0.00 | 43 | 1018.1 |
| 20260507162004 | 8 | 139 | 9.7 | 20.9 | 0.00 | 0.00 | 0.00 | 44 | 1018.3 |
| 20260507161004 | 9 | 271 | 11.3 | 20.9 | 0.00 | 0.00 | 0.00 | 43 | 1018.2 |
| 20260507160004 | 8 | 280 | 9.7 | 16.1 | 0.00 | 0.00 | 0.00 | 43 | 1018.2 |
| 20260507155004 | 8 | 325 | 8.0 | 14.5 | 0.00 | 0.00 | 0.00 | 44 | 1018.4 |
| 20260507154003 | 8 | 231 | 4.8 | 14.5 | 0.00 | 0.00 | 0.00 | 43 | 1018.8 |
| 20260507153004 | 8 | 298 | 11.3 | 22.5 | 0.00 | 0.00 | 0.00 | 44 | 1018.7 |
| 20260507152004 | 8 | 318 | 8.0 | 22.5 | 0.00 | 0.00 | 0.00 | 45 | 1018.9 |
| 20260507150003 | 8 | 286 | 8.0 | 22.5 | 0.00 | 0.00 | 0.00 | 47 | 1019.0 |
| 20260507145003 | 8 | 216 | 8.0 | 33.8 | 0.00 | 0.00 | 0.00 | 47 | 1019.1 |
| 20260507144004 | 7 | 279 | 8.0 | 24.1 | 0.00 | 0.00 | 0.00 | 52 | 1019.1 |
| 20260507142003 | 6 | 190 | 6.4 | 24.1 | 0.00 | 0.00 | 0.00 | 59 | 1019.6 |
| 20260507141003 | 6 | 275 | 8.0 | 24.1 | 0.00 | 0.00 | 0.00 | 60 | 1019.4 |
| 20260507140003 | 5 | 201 | 9.7 | 16.1 | 0.00 | 0.00 | 0.00 | 61 | 1019.3 |
| 20260507135003 | 5 | 189 | 3.2 | 14.5 | 0.00 | 0.00 | 0.00 | 63 | 1019.5 |
| 20260507133003 | 5 | 197 | 6.4 | 14.5 | 0.00 | 0.00 | 0.00 | 66 | 1019.8 |
| 20260507132004 | 4 | 255 | 4.8 | 11.3 | 0.00 | 0.00 | 0.00 | 66 | 1019.5 |
| 20260507131004 | 4 | 209 | 3.2 | 14.5 | 0.00 | 0.00 | 0.00 | 68 | 1019.5 |
| 20260507130004 | 4 | 175 | 1.6 | 11.3 | 0.00 | 0.00 | 0.00 | 69 | 1019.6 |
| 20260507125004 | 3 | 260 | 3.2 | 11.3 | 0.00 | 0.00 | 0.00 | 68 | 1019.8 |
| 20260507124004 | 3 | 190 | 8.0 | 11.3 | 0.00 | 0.00 | 0.00 | 69 | 1019.4 |
| 20260507122004 | 3 | 226 | 8.0 | 16.1 | 0.00 | 0.00 | 0.00 | 70 | 1019.4 |
| 20260507121004 | 3 | 235 | 6.4 | 11.3 | 0.00 | 0.00 | 0.00 | 69 | 1019.4 |
| 20260507120005 | 3 | 189 | 4.8 | 14.5 | 0.00 | 0.00 | 0.00 | 70 | 1019.3 |
| 20260507115003 | 3 | 225 | 8.0 | 11.3 | 0.00 | 0.00 | 0.00 | 70 | 1019.3 |
| 20260507114004 | 3 | 191 | 4.8 | 8.0 | 0.00 | 0.00 | 0.00 | 71 | 1019.0 |
| 20260507111003 | 1 | 145 | 3.2 | 9.7 | 0.00 | 0.00 | 0.00 | 76 | 1018.8 |
| 20260507110004 | 1 | 188 | 3.2 | 9.7 | 0.00 | 0.00 | 0.00 | 76 | 1018.5 |
| 20260507105004 | 1 | 135 | 3.2 | 11.3 | 0.00 | 0.00 | 0.00 | 77 | 1018.6 |
| 20260507104004 | 1 | 144 | 4.8 | 9.7 | 0.00 | 0.00 | 0.00 | 78 | 1018.4 |
| 20260507103003 | 0 | 168 | 3.2 | 4.8 | 0.00 | 0.00 | 0.00 | 79 | 1018.6 |
| 20260507102003 | 0 | 141 | 4.8 | 8.0 | 0.00 | 0.00 | 0.00 | 79 | 1018.3 |
| 20260507101004 | 1 | 152 | 3.2 | 8.0 | 0.00 | 0.00 | 0.00 | 79 | 1018.6 |
| 20260507095004 | 1 | 163 | 4.8 | 4.8 | 0.00 | 0.00 | 0.00 | 79 | 1018.6 |
| 20260507094004 | 1 | 140 | 4.8 | 8.0 | 0.00 | 0.00 | 0.00 | 78 | 1018.5 |
| 20260507093005 | 1 | 164 | 4.8 | 8.0 | 0.00 | 0.00 | 0.00 | 78 | 1018.5 |
| 20260507092003 | 1 | 162 | 4.8 | 8.0 | 0.00 | 0.00 | 0.00 | 77 | 1018.6 |
| 20260507091004 | 1 | 144 | 4.8 | 8.0 | 0.00 | 0.00 | 0.00 | 78 | 1018.5 |
| 20260507090004 | 1 | 137 | 3.2 | 9.7 | 0.00 | 0.00 | 0.00 | 78 | 1018.7 |
| 20260507085003 | 1 | 154 | 3.2 | 4.8 | 0.00 | 0.00 | 0.00 | 77 | 1018.8 |
| 20260507084003 | 1 | 123 | 4.8 | 4.8 | 0.00 | 0.00 | 0.00 | 77 | 1018.5 |
| 20260507083004 | 1 | 155 | 3.2 | 8.0 | 0.00 | 0.00 | 0.00 | 77 | 1018.6 |
| 20260507082003 | 1 | 170 | 3.2 | 4.8 | 0.00 | 0.00 | 0.00 | 78 | 1018.8 |
| 20260507081004 | 1 | 114 | 3.2 | 4.8 | 0.00 | 0.00 | 0.00 | 77 | 1018.5 |
| 20260507080004 | 1 | 95 | 3.2 | 8.0 | 0.00 | 0.00 | 0.00 | 76 | 1018.3 |
| 20260507075004 | 1 | 147 | 4.8 | 8.0 | 0.00 | 0.00 | 0.00 | 74 | 1018.4 |
| 20260507073004 | 2 | 104 | 3.2 | 4.8 | 0.00 | 0.00 | 0.00 | 71 | 1018.5 |
| 20260507065004 | 3 | 128 | 3.2 | 8.0 | 0.00 | 0.00 | 0.00 | 66 | 1018.9 |
| 20260507064004 | 2 | 92 | 3.2 | 8.0 | 0.00 | 0.00 | 0.00 | 65 | 1019.1 |
| 20260507063004 | 3 | 129 | 3.2 | 8.0 | 0.00 | 0.00 | 0.00 | 65 | 1019.1 |
| 20260507061004 | 3 | 112 | 3.2 | 4.8 | 0.00 | 0.00 | 0.00 | 65 | 1019.3 |
| 20260507060004 | 3 | 119 | 3.2 | 4.8 | 0.00 | 0.00 | 0.00 | 62 | 1019.4 |
| 20260507055004 | 4 | 102 | 1.6 | 3.2 | 0.00 | 0.00 | 0.00 | 60 | 1019.4 |
| 20260507054003 | 4 | 263 | 1.6 | 8.0 | 0.00 | 0.00 | 0.00 | 59 | 1019.6 |
| 20260507053004 | 4 | 255 | 1.6 | 8.0 | 0.00 | 0.00 | 0.00 | 59 | 1019.9 |
| 20260507052004 | 5 | 317 | 1.6 | 4.8 | 0.00 | 0.00 | 0.00 | 59 | 1019.7 |
| 20260507051004 | 5 | 227 | 3.2 | 8.0 | 0.00 | 0.00 | 0.00 | 59 | 1019.8 |
| 20260507050004 | 5 | 226 | 3.2 | 4.8 | 0.00 | 0.00 | 0.00 | 59 | 1019.9 |
| 20260507045004 | 5 | 285 | 1.6 | 9.7 | 0.00 | 0.00 | 0.00 | 60 | 1019.8 |
| 20260507043004 | 5 | 267 | 4.8 | 9.7 | 0.00 | 0.00 | 0.00 | 59 | 1019.6 |
| 20260507042003 | 5 | 330 | 4.8 | 8.0 | 0.00 | 0.00 | 0.00 | 60 | 1019.5 |
| 20260507040004 | 5 | 286 | 4.8 | 12.9 | 0.00 | 0.00 | 0.00 | 58 | 1019.5 |
| 20260507035004 | 5 | 313 | 3.2 | 9.7 | 0.00 | 0.00 | 0.00 | 58 | 1019.5 |
| 20260507034004 | 5 | 286 | 3.2 | 9.7 | 0.00 | 0.00 | 0.00 | 59 | 1019.5 |
| 20260507033003 | 5 | 285 | 3.2 | 11.3 | 0.00 | 0.00 | 0.00 | 59 | 1019.4 |
| 20260507032004 | 5 | 307 | 4.8 | 12.9 | 0.00 | 0.00 | 0.00 | 60 | 1019.3 |
| 20260507031004 | 5 | 317 | 3.2 | 11.3 | 0.00 | 0.00 | 0.00 | 59 | 1019.5 |
| 20260507025004 | 6 | 219 | 3.2 | 12.9 | 0.00 | 0.00 | 0.00 | 56 | 1019.5 |
| 20260507024004 | 6 | 184 | 3.2 | 11.3 | 0.00 | 0.00 | 0.00 | 56 | 1019.3 |
| 20260507023004 | 6 | 312 | 8.0 | 16.1 | 0.00 | 0.00 | 0.00 | 54 | 1019.2 |
| 20260507022004 | 6 | 287 | 8.0 | 12.9 | 0.00 | 0.00 | 0.00 | 53 | 1019.1 |
| 20260507021004 | 6 | 292 | 14.5 | 27.4 | 0.00 | 0.00 | 0.00 | 51 | 1019.1 |
| 20260507020003 | 6 | 298 | 11.3 | 20.9 | 0.00 | 0.00 | 0.00 | 51 | 1019.0 |